FLOCK 4H 21

导读

FLOCK 4H 21是美国于2025年11月28日发射的微型遥感卫星,隶属于Planet公司FLOCK系列SuperDove鸽子商业遥感星座。该系列卫星多配备多光谱成像载荷,能够提供高频率重访的对地观测数据,服务于农业监测、生态保护、城市规划、灾害评估等多个领域,旨在补充现有星座覆盖能力,为全球用户提供持续、精准的地表影像信息,支撑各行业地理空间应用决策。

基本信息
目录编号:
66724
目录名称:
FLOCK 4H 21
国际标识:
2025-276BL
轨道中心:
EARTH
卫星名称:
FLOCK 4H 21
卫星全名:
FLOCK 4H 21
卫星状态:
在轨 (已飞行280 天)
发射日期:
2025-11-28 UTC
国别 :
美国 (US)
星等 :
--
轨道信息
数据来源 国际轨道数据
星历时间: 2026-09-03T11:56:25+0800
1天前
查看轨道信息
半长轴: 6879.181km
偏心率: 0.0003455
轨道倾角: 97.412°
近地点辐角 58.877°
升交点赤经 318.751°
平近点角 301.281°
近地点: 498.667km
远地点: 503.421km
周期: 94.638分钟
每日圈数: 15.215902
详细信息
使用方式:
暂无
2D轨道图
3D轨道图
轨道高度分析图
轨道倾角分析图
轨道综合分析图
查看轨道综合分析图
交会数据列表
事件ID 空间交会对象 最接近时刻(TCA) 交会距离 交会风险概率(CRP) 交会风险指数(CRI) 操作
CDM_260906-184706-324206-672421
HERMES-1 (63242)
2026-09-06T
18:47:13+0000
0.716 km
远距离
8.13167E-5 中风险 0.73
CDM_260906-202106-324206-672421
HERMES-1 (63242)
2026-09-06T
20:21:54+0000
1.554 km
极远距离
6.058131E-6 低风险 0.51
CDM_260906-171206-324206-672421
HERMES-1 (63242)
2026-09-06T
17:12:32+0000
2.978 km
极远距离
1.367238E-6 低风险 0.38